THOR ABLESTAR DEB, 5265

Orbit data source: Space-Track

THOR ABLESTAR DEB, 5265 is space debris in LEO originally from a launch on Fri, 13 Aug 1965 UTC launched from the Air Force Western Test Range (AFWTR). Debris objects in space refer to the collection of defunct objects orbiting the Earth. Examples of debris include non-operational satellites, rocket bodies, and fragments generated from explosions, collisions, or faulty payload assembly.

Loading next visibility...
Identifier
5265, 1965-065Q
Orbit
LEO
Country
Flag of USUS
Related business
Manufacturer
Unknown
Mission
Spacecraft
Bus & Motor
Unknown
Mass
Unknown
Launch date (UTC)
1965-08-13 (60 years ago)
Launch vehicle
Unknown
Launch site
Air Force Western Test Range (AFWTR)
Object type
Payload
Rocket body
Debris
Shape & HBR
Unknown
Radar Cross Section
0.070 m², Small (<0.1 m²)

Expand to show TLE details & history
Last TLE update: 22 hours ago

TLE from 22 hours ago
0 THOR ABLESTAR DEB
1 05265U 65065Q   25258.40961123  .00000154  00000-0  25478-3 0  9997
2 05265  90.1415 302.0643 0043642  59.5209 317.9201 13.42385542935756
Epoch: 2025-09-15T09:49Z
TLE epoch observation values (Epoch: 2025-09-15T09:49:50.41Z)
Latitude
17.09°
Longitude
159.9463°
Altitude
1,078.58 km
Speed
7.326 km/s
True Right ascension
20h 08m 05s
True Declination
16° 59' 52"
Sunlit
Object was in full shadow at epoch
Visualization orbit readout
Latitude
Unknown
Longitude
Unknown
Altitude
Unknown
Speed
Unknown
Apparent Right ascension
Unknown
Apparent Declination
Unknown
Sunlit
N/A
Visualization observer readout
Local Sidereal Time
00:13:06
Azimuth
Unknown
Elevation
Unknown
Doppler factor
Unknown
Orbital elements
Apogee altitude
1,130.092 km
Perigee altitude
1,064.842 km
Semi-major axis
7,475.604 km
Eccentricity
0.00436
Inclination
90.1415°
RAAN
302.0643°
Arg. of periapsis
59.5209°
True anomaly
317.58359°
Mean anomaly
317.9201°
Eccentric anomaly
317.75198°
Mean motion
3.35795 °/min
Orbital period
107.21 mins
BSTAR
0.00025478
Loading maneuver chart data...
Computing Atmospheric mass density...
Loading historical data...
Loading historical data...
Loading historical data...
Loading historical data...
Loading historical data...
Loading historical data...
Loading historical data...

Documentation

Showing up to 5 results
|